When you browse on this site, cookies collect data to enhance your experience and personalize the content and advertising you see.
Visit our Privacy Policy to learn more. By continuing to use the site, you agree to this use of cookies and data.
  • Em Portugal
  • Lista de países
  • Para 7 dias
  • Temperatura da água
  • Mapa do tempo
  • Widgets de tempo
  • user-avatar
    Iniciar Sessão

    Previsão horária em Panevėžys

    Hoje, 1 Abril, Quarta-feira

    Tempo Temperatura Precipitação Vento Pressão Humidade
    00:00 -4°C° 0 mm 5 m/s 758 mmHg 68%
    01:00 -2°C° 0 mm 5 m/s 757 mmHg 68%
    02:00 -2°C° 0 mm 5 m/s 756 mmHg 67%
    03:00 -3°C° 0 mm 6 m/s 755 mmHg 72%
    04:00 -3°C° 0 mm 6 m/s 754 mmHg 77%
    05:00 -3°C° 0 mm 7 m/s 754 mmHg 82%
    06:00 -2°C° 0.4 mm 7 m/s 753 mmHg 86%
    07:00 -2°C° 0.4 mm 7 m/s 753 mmHg 90%
    08:00 -1°C° 0 mm 6 m/s 752 mmHg 95%
    09:00 -1°C° 0.3 mm 7 m/s 752 mmHg 93%
    10:00 0°C° 0.3 mm 7 m/s 751 mmHg 91%
    11:00 +2°C° 0.3 mm 7 m/s 751 mmHg 90%
    12:00 +3°C° 0.1 mm 7 m/s 751 mmHg 84%
    13:00 +3°C° 0.1 mm 7 m/s 751 mmHg 78%
    14:00 +4°C° 0.1 mm 7 m/s 751 mmHg 73%
    15:00 +4°C° 0 mm 7 m/s 751 mmHg 73%
    16:00 +4°C° 0 mm 7 m/s 750 mmHg 74%
    17:00 +4°C° 0 mm 7 m/s 750 mmHg 75%
    18:00 +3°C° 0 mm 6 m/s 750 mmHg 78%
    19:00 +2°C° 0 mm 5 m/s 750 mmHg 80%
    20:00 +1°C° 0 mm 5 m/s 750 mmHg 83%
    21:00 +1°C° 0 mm 5 m/s 749 mmHg 86%
    22:00 +1°C° 0 mm 5 m/s 749 mmHg 89%
    23:00 +1°C° 0 mm 5 m/s 748 mmHg 92%

    Amanhã, 2 Abril, Quinta-feira

    Tempo Temperatura Precipitação Vento Pressão Humidade
    00:00 +1°C° 0.1 mm 5 m/s 748 mmHg 92%
    01:00 +1°C° 0.1 mm 5 m/s 747 mmHg 92%
    02:00 +1°C° 0.1 mm 5 m/s 747 mmHg 92%
    03:00 +2°C° 0.2 mm 6 m/s 747 mmHg 91%
    04:00 +2°C° 0.2 mm 6 m/s 746 mmHg 89%
    05:00 +2°C° 0.2 mm 7 m/s 745 mmHg 88%
    06:00 +2°C° 0 mm 6 m/s 745 mmHg 88%
    07:00 +2°C° 0 mm 6 m/s 745 mmHg 88%
    08:00 +2°C° 0 mm 6 m/s 745 mmHg 88%
    09:00 +2°C° 0.1 mm 6 m/s 745 mmHg 89%
    10:00 +2°C° 0.1 mm 7 m/s 745 mmHg 89%
    11:00 +3°C° 0.1 mm 7 m/s 746 mmHg 90%
    12:00 +4°C° 0.1 mm 8 m/s 746 mmHg 82%
    13:00 +4°C° 0.1 mm 8 m/s 746 mmHg 74%
    14:00 +5°C° 0.1 mm 9 m/s 746 mmHg 66%
    15:00 +5°C° 0 mm 9 m/s 745 mmHg 66%
    16:00 +5°C° 0 mm 9 m/s 745 mmHg 67%
    17:00 +3°C° 0 mm 9 m/s 745 mmHg 68%
    18:00 +3°C° 0 mm 9 m/s 745 mmHg 70%
    19:00 +2°C° 0 mm 8 m/s 745 mmHg 71%
    20:00 +2°C° 0 mm 8 m/s 745 mmHg 73%
    21:00 +2°C° 0 mm 8 m/s 744 mmHg 73%
    22:00 +2°C° 0 mm 8 m/s 743 mmHg 72%
    23:00 +2°C° 0 mm 8 m/s 743 mmHg 72%

    Depois de amanhã, 3 Abril, Sexta-feira

    Tempo Temperatura Precipitação Vento Pressão Humidade
    00:00 +1°C° 0 mm 8 m/s 742 mmHg 73%
    01:00 +1°C° 0 mm 8 m/s 742 mmHg 74%
    02:00 +1°C° 0 mm 8 m/s 741 mmHg 76%
    03:00 +1°C° 0 mm 9 m/s 741 mmHg 77%
    04:00 +1°C° 0 mm 9 m/s 740 mmHg 79%
    05:00 +1°C° 0 mm 10 m/s 739 mmHg 80%
    06:00 +1°C° 0.2 mm 10 m/s 740 mmHg 76%
    07:00 +1°C° 0.2 mm 9 m/s 740 mmHg 72%
    08:00 +1°C° 0.2 mm 9 m/s 741 mmHg 67%
    09:00 +2°C° 0 mm 9 m/s 742 mmHg 63%
    10:00 +2°C° 0 mm 9 m/s 742 mmHg 58%
    11:00 +3°C° 0 mm 9 m/s 743 mmHg 53%
    12:00 +5°C° 0.1 mm 9 m/s 743 mmHg 51%
    13:00 +5°C° 0.1 mm 9 m/s 744 mmHg 48%
    14:00 +5°C° 0.1 mm 9 m/s 745 mmHg 46%
    15:00 +5°C° 0.1 mm 8 m/s 745 mmHg 47%
    16:00 +5°C° 0.1 mm 8 m/s 745 mmHg 48%
    17:00 +4°C° 0.1 mm 7 m/s 746 mmHg 50%
    18:00 +3°C° 0.2 mm 6 m/s 747 mmHg 56%
    19:00 +2°C° 0.2 mm 6 m/s 747 mmHg 63%
    20:00 +1°C° 0.2 mm 5 m/s 748 mmHg 70%
    21:00 0°C° 0.1 mm 5 m/s 748 mmHg 73%
    22:00 0°C° 0.1 mm 5 m/s 749 mmHg 77%
    23:00 0°C° 0.1 mm 4 m/s 749 mmHg 80%

    4 Abril, Sábado

    Tempo Temperatura Precipitação Vento Pressão Humidade
    00:00 -1°C° 0 mm 4 m/s 750 mmHg 81%
    01:00 -1°C° 0 mm 4 m/s 750 mmHg 81%
    02:00 -1°C° 0 mm 3 m/s 751 mmHg 81%
    03:00 -1°C° 0 mm 3 m/s 751 mmHg 81%
    04:00 -2°C° 0 mm 4 m/s 752 mmHg 80%
    05:00 -2°C° 0 mm 4 m/s 753 mmHg 79%
    06:00 -1°C° 0 mm 4 m/s 753 mmHg 75%
    07:00 0°C° 0 mm 5 m/s 754 mmHg 71%
    08:00 +1°C° 0 mm 6 m/s 755 mmHg 67%
    09:00 +2°C° 0.1 mm 6 m/s 755 mmHg 61%
    10:00 +3°C° 0.1 mm 7 m/s 756 mmHg 55%
    11:00 +4°C° 0.1 mm 7 m/s 756 mmHg 49%
    12:00 +4°C° 0.1 mm 7 m/s 756 mmHg 48%
    13:00 +4°C° 0.1 mm 7 m/s 757 mmHg 47%
    14:00 +4°C° 0.1 mm 8 m/s 758 mmHg 46%
    15:00 +4°C° 0 mm 8 m/s 758 mmHg 46%
    16:00 +2°C° 0 mm 8 m/s 759 mmHg 45%
    17:00 +2°C° 0 mm 8 m/s 759 mmHg 45%
    18:00 +2°C° 0 mm 7 m/s 760 mmHg 50%
    19:00 +1°C° 0 mm 6 m/s 761 mmHg 55%
    20:00 0°C° 0 mm 5 m/s 762 mmHg 60%
    21:00 -1°C° 0 mm 4 m/s 763 mmHg 64%
    22:00 -1°C° 0 mm 3 m/s 763 mmHg 69%
    23:00 -2°C° 0 mm 3 m/s 764 mmHg 73%

    5 Abril, Domingo

    Tempo Temperatura Precipitação Vento Pressão Humidade
    00:00 -2°C° 0 mm 3 m/s 765 mmHg 71%
    01:00 -2°C° 0 mm 3 m/s 765 mmHg 68%
    02:00 -2°C° 0 mm 3 m/s 766 mmHg 66%
    03:00 -2°C° 0 mm 3 m/s 766 mmHg 64%
    04:00 -2°C° 0 mm 3 m/s 767 mmHg 63%
    05:00 -2°C° 0 mm 3 m/s 768 mmHg 61%
    06:00 -1°C° 0 mm 3 m/s 768 mmHg 57%
    07:00 0°C° 0 mm 4 m/s 769 mmHg 53%
    08:00 +1°C° 0 mm 4 m/s 769 mmHg 48%
    09:00 +3°C° 0 mm 4 m/s 770 mmHg 43%
    10:00 +3°C° 0 mm 5 m/s 770 mmHg 37%
    11:00 +5°C° 0 mm 5 m/s 771 mmHg 31%
    12:00 +5°C° 0 mm 5 m/s 771 mmHg 32%
    13:00 +6°C° 0 mm 5 m/s 771 mmHg 33%
    14:00 +6°C° 0 mm 5 m/s 772 mmHg 34%
    15:00 +6°C° 0 mm 5 m/s 772 mmHg 36%
    16:00 +5°C° 0 mm 4 m/s 772 mmHg 38%
    17:00 +5°C° 0 mm 4 m/s 772 mmHg 40%
    18:00 +3°C° 0 mm 3 m/s 772 mmHg 45%
    19:00 +1°C° 0 mm 3 m/s 773 mmHg 50%
    20:00 +1°C° 0 mm 2 m/s 773 mmHg 56%
    21:00 -1°C° 0 mm 2 m/s 774 mmHg 57%
    22:00 -1°C° 0 mm 2 m/s 774 mmHg 58%
    23:00 0°C° 0 mm 1 m/s 774 mmHg 59%

    6 Abril, Segunda-feira

    Tempo Temperatura Precipitação Vento Pressão Humidade
    00:00 -2°C° 0 mm 2 m/s 775 mmHg 59%
    01:00 -2°C° 0 mm 2 m/s 775 mmHg 59%
    02:00 -2°C° 0 mm 2 m/s 775 mmHg 60%
    03:00 -2°C° 0 mm 2 m/s 775 mmHg 60%
    04:00 -2°C° 0 mm 2 m/s 775 mmHg 60%
    05:00 -2°C° 0 mm 2 m/s 775 mmHg 59%
    06:00 -1°C° 0 mm 2 m/s 775 mmHg 56%
    07:00 0°C° 0 mm 3 m/s 775 mmHg 52%
    08:00 +1°C° 0 mm 3 m/s 776 mmHg 48%
    09:00 +2°C° 0 mm 3 m/s 775 mmHg 45%
    10:00 +4°C° 0 mm 4 m/s 775 mmHg 41%
    11:00 +6°C° 0 mm 4 m/s 775 mmHg 38%
    12:00 +6°C° 0 mm 4 m/s 774 mmHg 37%
    13:00 +7°C° 0 mm 4 m/s 774 mmHg 37%
    14:00 +8°C° 0 mm 5 m/s 774 mmHg 37%
    15:00 +8°C° 0 mm 5 m/s 773 mmHg 39%
    16:00 +8°C° 0 mm 5 m/s 773 mmHg 42%
    17:00 +8°C° 0 mm 5 m/s 772 mmHg 45%
    18:00 +7°C° 0 mm 5 m/s 772 mmHg 50%
    19:00 +5°C° 0 mm 5 m/s 772 mmHg 55%
    20:00 +3°C° 0 mm 5 m/s 772 mmHg 60%
    21:00 +2°C° 0 mm 5 m/s 772 mmHg 60%
    22:00 +2°C° 0 mm 5 m/s 772 mmHg 61%
    23:00 +2°C° 0 mm 5 m/s 771 mmHg 61%
    Mostrar mais